Home   Weather   Schaffhausen   Past weeks

Flag for Switzerland Past Weather in Schaffhausen, Schaffhausen, Switzerland — Yesterday and Last 2 Weeks

Now
22 °F

Cold.


Feels Like: 14 °F
Forecast: 14 / 32 °F
Wind: 6 mph from North

Location: Zurich-Kloten

Current Time: Jan 20, 2017 at 8:55:19 am

Latest Report: Jan 20, 2017 at 8:00 am


Visibility: N/A

Pressure: 30.54 "Hg

Humidity: 82%

Dew Point: 17 °F

Location of SchaffhausenLocation

Past Weather in Schaffhausen — Graph

°F

Schaffhausen Temperature Yesterday

Maximum temperature yesterday: 25 °F (at 12:00 am)
Minimum temperature yesterday: 23 °F (at 8:00 pm)
Average temperature yesterday: 24 °F

High & Low Weather Summary for the Past Weeks

 TemperatureHumidityPressure
High43 °F (Jan 13, 2:00 am)100% (Jan 5, 7:00 am)30.76 "Hg (Jan 5, 7:00 am)
Low5 °F (Jan 7, 5:00 am)47% (Jan 7, 2:00 am)29.53 "Hg (Jan 13, 1:00 am)
Average27 °F81%30.29 "Hg
* Reported Jan 5 7:00 am — Jan 20 7:00 am, Schaffhausen, Weather by CustomWeather, © 2017

Note: Actual official high and low records may vary slightly from our data, if they occured in-between our weather recording intervals... More about our weather records

Advertising

Schaffhausen Weather History for the Previous 24 Hours

Scroll right to see more
 ConditionsComfort  
Time TempWeatherWind HumidityBarometerVisibility
7:00 am
Fri, Jan 20
22 °FFog.5 mph81%30.54 "Hg3 mi
6:00 am22 °FCold.6 mph79%30.54 "HgN/A
5:00 am22 °FCold.8 mph79%30.54 "HgN/A
4:00 am22 °FFog.9 mph77%30.53 "Hg3 mi
3:00 am22 °FCold.7 mph77%30.53 "HgN/A
2:00 am22 °FCold.6 mph77%30.53 "HgN/A
1:00 am23 °FFog.6 mph78%30.54 "Hg4 mi
12:00 am23 °FCold.7 mph78%30.54 "HgN/A
11:00 pm
Thu, Jan 19
23 °FCold.8 mph78%30.55 "HgN/A
10:00 pm24 °FFog.10 mph77%30.55 "Hg4 mi
9:00 pm23 °FCold.8 mph77%30.56 "HgN/A
8:00 pm23 °FCold.7 mph77%30.55 "HgN/A
7:00 pm24 °FFog.8 mph76%30.55 "Hg4 mi
6:00 pm24 °FCold.8 mph76%30.54 "HgN/A
5:00 pm24 °FCold.9 mph76%30.54 "HgN/A
4:00 pm24 °FFog.8 mph74%30.53 "Hg6 mi
3:00 pm24 °FCold.8 mph75%30.53 "HgN/A
2:00 pm24 °FCold.9 mph74%30.53 "HgN/A
1:00 pm24 °FFog.10 mph75%30.54 "Hg5 mi
12:00 pm24 °FCold.12 mph76%30.55 "HgN/A
11:00 am24 °FCold.12 mph76%30.55 "HgN/A
10:00 am24 °FFog.10 mph76%30.55 "Hg6 mi
9:00 am24 °FCold.14 mph76%30.54 "HgN/A
8:00 am23 °FCold.15 mph75%30.52 "HgN/A
Weather by CustomWeather, © 2017

See weather overviewHow to use our weather pages